Regional Weather Roundup
Issued by NWS

Home | Current Version | Previous Version | Text Only | Print | Product List | Glossary On
Versions: 1 2 3 4 5 6 7 8 9 10 11 12 13 14 15 16 17 18 19 20 21 22 23 24 25 26 27 28 29 30 31 32 33 34 35 36 37 38 39 40 41 42 43 44 45 46 47 48 49 50
000
ASUS43 KDMX 291707
RWRIA

WEATHER ROUNDUP FOR IOWA
NATIONAL WEATHER SERVICE DES MOINES IA
1200 PM CDT TUE JUL 29 2014

NOTE: "FAIR" INDICATES FEW OR NO CLOUDS BELOW 12,000 FEET WITH NO
SIGNIFICANT WEATHER AND/OR OBSTRUCTIONS TO VISIBILITY.

* - THESE STATIONS ARE NOT NWS STATIONS...THUS NOT UNDER NWS
QUALITY CONTROL.  THEY ALSO DO NOT REPORT WEATHER SUCH
AS PRECIPITATION OR FOG.

IAZ001>003-012>014-020>022-031>034-043>046-291800-
   NORTHWEST IOWA

CITY           SKY/WX    TMP DP  RH WIND       PRES   REMARKS
CARROLL *      MOSUNNY   72  54  53 VRB6G13   30.20S
CHEROKEE *     MOSUNNY   70  55  60 N3        30.21S
DENISON *      MOSUNNY   72  54  53 NW8G15    30.20S
LE MARS *      MOSUNNY   72  55  56 VRB7      30.22F
ORANGE CITY *  PTSUNNY   72  52  49 NW3       30.22F
SHELDON *      PTSUNNY   70  54  56 N5        30.21S
SIOUX CITY     PTSUNNY   75  56  51 N7        30.22S
SPENCER        SUNNY     73  53  49 N9        30.21S
STORM LAKE *   MOSUNNY   72  55  56 NW7       30.22S
$$

IAZ055>058-069>071-079>083-090>094-291800-
   SOUTHWEST IOWA

CITY           SKY/WX    TMP DP  RH WIND       PRES   REMARKS
ATLANTIC *     MOSUNNY   72  55  56 NW7G15    30.20S
AUDUBON *      MOSUNNY   73  57  56 NW5       30.21F
CLARINDA *     PTSUNNY   73  59  60 VRB5      30.22S
COUNCIL BLFS * MOSUNNY   72  61  68 CALM      30.21S
CRESTON *      PTSUNNY   72  55  56 N8        30.20F
HARLAN  *      PTSUNNY   72  57  60 N6        30.24F
LAMONI         MOSUNNY   75  54  47 NW7       30.19S
RED OAK *      MOSUNNY   75  59  57 CALM      30.20F
SHENANDOAH *   PTSUNNY   75  59  57 VRB5      30.21S
$$

IAZ047>049-059>061-072>074-084-291800-
   CENTRAL IOWA

CITY           SKY/WX    TMP DP  RH WIND       PRES   REMARKS
AMES           MOSUNNY   75  57  53 VRB3      30.17S
ANKENY *       MOSUNNY   75  55  50 NW9G16    30.18S
CHARITON *     PTSUNNY   73  55  53 N6        30.18S
DES MOINES     MOSUNNY   78  55  44 NW12      30.17S
GRINNELL*      PTSUNNY   72  57  60 NW8       30.17S
KNOXVILLE *    MOSUNNY   73  55  53 NW10      30.16F
MARSHALLTOWN   MOSUNNY   72  58  61 NW6       30.16S
PELLA *        PTSUNNY   75  57  53 NW8       30.18S
PERRY *          N/A     73  59  60 NW8       30.19S
$$

IAZ004>006-015-016-023>025-035-036-291800-
   NORTH CENTRAL IOWA

CITY           SKY/WX    TMP DP  RH WIND       PRES   REMARKS
ALGONA *       PTSUNNY   72  57  60 NW8       30.19S
CLARION *      MOSUNNY   73  57  56 W10G16    30.18S
ESTHERVILLE    MOSUNNY   71  55  56 N9        30.19F
FORT DODGE *   PTSUNNY   72  57  60 N5        30.20S
MASON CITY     MOSUNNY   72  56  57 N8        30.18S
FOREST CITY *  MOSUNNY   72  59  64 NE13G20   30.17F
IOWA FALLS *     N/A     73  57  56 NW10      30.18S
$$

IAZ007>011-017>019-026>030-037>042-050>054-066-291800-
   NORTHEAST IOWA

CITY           SKY/WX    TMP DP  RH WIND       PRES   REMARKS
CEDAR RAPIDS   SUNNY     75  59  57 W10       30.13S
CHARLES CITY * MOSUNNY   73  59  60 NW10      30.15F
CLINTON *      SUNNY     73  59  60 NW8       30.12F
DECORAH *      PTSUNNY   73  59  60 NW8       30.11F
DUBUQUE        SUNNY     74  58  57 NW10      30.11S
MONTICELLO *   MOSUNNY   75  59  57 NW9       30.11F
OELWEIN *      MOSUNNY   73  57  56 N10       30.14S
WATERLOO       MOSUNNY   74  57  55 NW12      30.13F
$$

IAZ064-065-067-068-078-291800-
   EAST CENTRAL IOWA

CITY           SKY/WX    TMP DP  RH WIND       PRES   REMARKS
DAVENPORT      SUNNY     75  58  55 VRB6      30.11F
IOWA CITY      SUNNY     76  57  51 NW7       30.14S
MT. PLEASANT * MOSUNNY   75  55  50 W10       30.15S
MUSCATINE *    MOSUNNY   75  57  53 NW10G16   30.12F
QUAD CITIES    MOSUNNY   76  56  49 NW9       30.11S
$$

IAZ062-063-075>077-085>089-095>099-291800-
   SOUTHEAST IOWA

CITY           SKY/WX    TMP DP  RH WIND       PRES   REMARKS
BURLINGTON     MOSUNNY   74  58  57 NW7       30.13F
FAIRFIELD *    MOSUNNY   73  59  60 NW7G16    30.16S
FORT MADISON * MOSUNNY   75  59  57 W7        30.15S
KEOKUK *       MOSUNNY   73  57  56 NW8       30.14F
OSKALOOSA *      N/A     73  59  60 NW10      30.17S
CENTERVILLE *  MOSUNNY   73  57  56 NW5       30.19S
OTTUMWA        MOSUNNY   75  58  55 NW9       30.16S
WASHINGTON *   SUNNY     75  61  60 NW10      30.14F
$$

ABBREVIATIONS USED IN REMARKS
   TC - TEMPERATURES IN CELSIUS
  WCI - WIND CHILL INDEX
   HX - HEAT INDEX
  VSB - VISIBILITY
$$




USA.gov is the U.S. government's official web portal to all federal, state and local government web resources and services.